TimePST,TemperatureF,Dew PointF,Humidity,Sea Level PressureIn,VisibilityMPH,Wind Direction,Wind SpeedMPH,Gust SpeedMPH,PrecipitationIn,Events,Conditions,WindDirDegrees,DateUTC
12:15 AM,24.8,23.0,93,30.26,5.0,Calm,Calm,-,N/A,,Mostly Cloudy,0,2013-12-13 08:15:00
12:35 AM,24.8,23.0,93,30.25,7.0,Calm,Calm,-,N/A,,Partly Cloudy,0,2013-12-13 08:35:00
12:55 AM,24.8,23.0,93,30.26,3.0,Calm,Calm,-,N/A,,Scattered Clouds,0,2013-12-13 08:55:00
1:15 AM,24.8,23.0,93,30.26,1.0,Calm,Calm,-,N/A,,Overcast,0,2013-12-13 09:15:00
1:35 AM,24.8,23.0,93,30.26,2.0,Calm,Calm,-,N/A,,Overcast,0,2013-12-13 09:35:00
1:55 AM,24.8,23.0,93,30.26,5.0,Calm,Calm,-,N/A,,Overcast,0,2013-12-13 09:55:00
2:15 AM,24.8,23.0,93,30.28,2.0,Calm,Calm,-,N/A,,Overcast,0,2013-12-13 10:15:00
2:35 AM,24.8,23.0,93,30.28,0.2,Calm,Calm,-,N/A,,Overcast,0,2013-12-13 10:35:00
2:55 AM,24.8,23.0,93,30.28,0.5,Calm,Calm,-,N/A,,Overcast,0,2013-12-13 10:55:00
3:15 AM,24.8,23.0,93,30.28,0.5,Calm,Calm,-,N/A,,Overcast,0,2013-12-13 11:15:00
3:35 AM,24.8,23.0,93,30.28,1.5,Calm,Calm,-,N/A,,Overcast,0,2013-12-13 11:35:00
3:55 AM,24.8,23.0,93,30.28,0.5,Calm,Calm,-,N/A,,Overcast,0,2013-12-13 11:55:00
4:15 AM,24.8,23.0,93,30.28,0.5,Calm,Calm,-,N/A,,Overcast,0,2013-12-13 12:15:00
4:35 AM,24.8,23.0,93,30.28,0.5,Calm,Calm,-,N/A,,Overcast,0,2013-12-13 12:35:00
4:55 AM,24.8,23.0,93,30.28,0.2,NNE,3.5,-,N/A,,Overcast,20,2013-12-13 12:55:00
5:15 AM,24.8,23.0,93,30.28,0.2,Calm,Calm,-,N/A,,Overcast,0,2013-12-13 13:15:00
5:35 AM,24.8,23.0,93,30.29,0.8,Calm,Calm,-,N/A,,Overcast,0,2013-12-13 13:35:00
5:55 AM,24.8,23.0,93,30.29,0.2,Calm,Calm,-,N/A,,Overcast,0,2013-12-13 13:55:00
6:15 AM,24.8,23.0,93,30.29,5.0,Calm,Calm,-,N/A,,Overcast,0,2013-12-13 14:15:00
6:35 AM,24.8,23.0,93,30.30,3.0,Calm,Calm,-,N/A,,Overcast,0,2013-12-13 14:35:00
6:55 AM,24.8,23.0,93,30.31,0.2,Calm,Calm,-,N/A,,Overcast,0,2013-12-13 14:55:00
7:15 AM,24.8,23.0,93,30.32,0.2,Calm,Calm,-,N/A,,Overcast,0,2013-12-13 15:15:00
7:35 AM,24.8,23.0,93,30.32,0.5,Calm,Calm,-,N/A,,Overcast,0,2013-12-13 15:35:00
7:55 AM,24.8,23.0,93,30.34,5.0,Calm,Calm,-,N/A,,Overcast,0,2013-12-13 15:55:00
8:15 AM,24.8,23.0,93,30.36,0.2,Calm,Calm,-,N/A,,Overcast,0,2013-12-13 16:15:00
8:35 AM,24.8,23.0,93,30.37,2.5,Calm,Calm,-,N/A,,Overcast,0,2013-12-13 16:35:00
8:55 AM,24.8,23.0,93,30.38,3.0,Calm,Calm,-,N/A,,Overcast,0,2013-12-13 16:55:00
9:15 AM,24.8,23.0,93,30.39,0.5,Calm,Calm,-,N/A,,Overcast,0,2013-12-13 17:15:00
9:35 AM,24.8,24.8,100,30.38,0.8,Calm,Calm,-,N/A,,Overcast,0,2013-12-13 17:35:00
9:55 AM,26.6,24.8,93,30.38,7.0,Calm,Calm,-,N/A,,Overcast,0,2013-12-13 17:55:00
10:15 AM,26.6,24.8,93,30.38,2.0,Calm,Calm,-,N/A,,Overcast,0,2013-12-13 18:15:00
10:35 AM,28.4,26.6,93,30.38,4.0,Calm,Calm,-,N/A,,Overcast,0,2013-12-13 18:35:00
10:55 AM,28.4,28.4,100,30.37,8.0,Calm,Calm,-,N/A,,Mostly Cloudy,0,2013-12-13 18:55:00
11:15 AM,32.0,28.4,87,30.36,9.0,SW,3.5,-,N/A,,Partly Cloudy,220,2013-12-13 19:15:00
11:35 AM,32.0,32.0,100,30.36,9.0,Calm,Calm,-,N/A,,Clear,0,2013-12-13 19:35:00
11:55 AM,32.0,32.0,100,30.34,10.0,Calm,Calm,-,N/A,,Clear,0,2013-12-13 19:55:00
12:15 PM,35.6,32.0,87,30.34,10.0,Calm,Calm,-,N/A,,Clear,0,2013-12-13 20:15:00
12:35 PM,37.4,32.0,81,30.34,10.0,Calm,Calm,-,N/A,,Clear,0,2013-12-13 20:35:00
12:55 PM,39.2,30.2,70,30.34,10.0,Calm,Calm,-,N/A,,Clear,0,2013-12-13 20:55:00
1:15 PM,41.0,30.2,65,30.33,10.0,Calm,Calm,-,N/A,,Clear,0,2013-12-13 21:15:00
1:55 PM,44.6,28.4,53,30.32,10.0,Calm,Calm,-,N/A,,Clear,0,2013-12-13 21:55:00
2:15 PM,44.6,30.2,57,30.32,10.0,Calm,Calm,-,N/A,,Clear,0,2013-12-13 22:15:00
2:35 PM,46.4,30.2,53,30.31,10.0,Calm,Calm,-,N/A,,Clear,0,2013-12-13 22:35:00
2:55 PM,46.4,32.0,57,30.31,10.0,SSW,3.5,-,N/A,,Clear,210,2013-12-13 22:55:00
3:15 PM,46.4,28.4,50,30.31,10.0,Calm,Calm,-,N/A,,Clear,0,2013-12-13 23:15:00
3:35 PM,46.4,30.2,53,30.32,10.0,Calm,Calm,-,N/A,,Partly Cloudy,0,2013-12-13 23:35:00
3:55 PM,46.4,32.0,57,30.32,10.0,Calm,Calm,-,N/A,,Partly Cloudy,0,2013-12-13 23:55:00
4:15 PM,44.6,32.0,61,30.32,10.0,Calm,Calm,-,N/A,,Clear,0,2013-12-14 00:15:00
4:35 PM,39.2,32.0,75,30.32,10.0,Calm,Calm,-,N/A,,Clear,0,2013-12-14 00:35:00
4:55 PM,35.6,30.2,81,30.32,10.0,NNE,3.5,-,N/A,,Clear,20,2013-12-14 00:55:00
5:15 PM,35.6,28.4,75,30.33,9.0,Calm,Calm,-,N/A,,Clear,0,2013-12-14 01:15:00
5:35 PM,33.8,28.4,81,30.33,8.0,NNE,3.5,-,N/A,,Partly Cloudy,30,2013-12-14 01:35:00
5:55 PM,32.0,28.4,87,30.33,8.0,North,3.5,-,N/A,,Partly Cloudy,10,2013-12-14 01:55:00
6:15 PM,32.0,28.4,87,30.33,9.0,Calm,Calm,-,N/A,,Mostly Cloudy,0,2013-12-14 02:15:00
6:35 PM,30.2,28.4,93,30.34,7.0,Calm,Calm,-,N/A,,Scattered Clouds,0,2013-12-14 02:35:00
6:55 PM,30.2,28.4,93,30.34,7.0,NNE,3.5,-,N/A,,Partly Cloudy,20,2013-12-14 02:55:00
7:15 PM,28.4,26.6,93,30.35,7.0,Calm,Calm,-,N/A,,Clear,0,2013-12-14 03:15:00
7:35 PM,28.4,26.6,93,30.36,8.0,Calm,Calm,-,N/A,,Partly Cloudy,0,2013-12-14 03:35:00
7:55 PM,28.4,26.6,93,30.37,8.0,Calm,Calm,-,N/A,,Clear,0,2013-12-14 03:55:00
8:15 PM,28.4,26.6,93,30.37,8.0,North,3.5,-,N/A,,Clear,10,2013-12-14 04:15:00
8:35 PM,28.4,26.6,93,30.37,8.0,Calm,Calm,-,N/A,,Scattered Clouds,0,2013-12-14 04:35:00
8:55 PM,28.4,26.6,93,30.38,8.0,Calm,Calm,-,N/A,,Scattered Clouds,0,2013-12-14 04:55:00
9:15 PM,28.4,26.6,93,30.39,7.0,Calm,Calm,-,N/A,,Scattered Clouds,0,2013-12-14 05:15:00
9:35 PM,28.4,26.6,93,30.39,7.0,Calm,Calm,-,N/A,,Partly Cloudy,0,2013-12-14 05:35:00
9:55 PM,26.6,24.8,93,30.40,5.0,Calm,Calm,-,N/A,,Clear,0,2013-12-14 05:55:00
10:15 PM,26.6,24.8,93,30.40,5.0,Calm,Calm,-,N/A,,Clear,0,2013-12-14 06:15:00
10:35 PM,26.6,24.8,93,30.40,5.0,Calm,Calm,-,N/A,,Partly Cloudy,0,2013-12-14 06:35:00
10:55 PM,26.6,24.8,93,30.40,6.0,Calm,Calm,-,N/A,,Clear,0,2013-12-14 06:55:00
11:15 PM,26.6,24.8,93,30.40,7.0,Calm,Calm,-,N/A,,Clear,0,2013-12-14 07:15:00
11:35 PM,26.6,24.8,93,30.41,8.0,Calm,Calm,-,N/A,,Clear,0,2013-12-14 07:35:00
11:55 PM,24.8,24.8,100,30.41,8.0,Calm,Calm,-,N/A,,Clear,0,2013-12-14 07:55:00